Location: DARK SKY Beskydy - Park tmavé oblohy, www.darkskybeskydy.cz
(49.4926°N, 18.5016°E)
Time: 23:37:30
(UTC+02:00)

Vanguard 1 - Pass Details

Date: 24 February 2024
Orbit: 653 x 3825 km, 34.2° (Epoch: 21 April)

Event Time Altitude Azimuth Distance (km) Brightness Sun altitude
Rises 02:50:25 0° 279° (W) 7,778 - -36.7°
Reaches altitude 10° 02:57:46 10° 267° (W) 6,913 - -35.7°
Maximum altitude 03:12:00 21° 229° (SW) 5,842 - -33.7°
Exits shadow 03:22:55 13° 194° (SSW) 5,942 13.7 -32.1°
Drops below altitude 10° 03:24:44 10° 189° (S) 6,053 13.8 -31.9°
Sets 03:30:38 0° 174° (S) 6,584 14.1 -31.0°
